Starlink 33816

operational
NORAD ID: 63677 Int'l Des: 2025-085 Owner: SPXS Country: US Constellation: starlink
LEOCIRCULAR

关于 Starlink 33816

正在加载描述...

实时位置

正在加载3D地球...

即将过境

高度历史

Altitude vs Time

uPlot chart will show altitude changes over time

两行轨道根数

1 63677U 25085P 25354.08438041 .00017857 00000-0 65648-3 0 9996
2 63677 42.9975 120.6330 0000985 50.4756 309.6182 15.27599618 36798
Epoch: Dec 20, 2025 • Age: 18 hours

当前状态

高度 484.8 km
速度 7.63 km/s
星下点 38.89°N, 149.25°W
发射日期 Apr 28, 2025
运行时间 0.6 years
类型 internet

技术详情

分类 Payload
质量 575.00 kg
干质量 530.00 kg
总质量 575.00 kg
长度 0.30 m
直径 4.10 m
跨度 29.00 m
形状 Box + pan
制造商 SPXS
平台类型 Starlink V2MO
阶段状态 In Orbit
所有者/国家 SPXS/US

大型星座

Loading constellations...